RH
42 41 39 39 37 36 36 36 35 33 31 29 27 25 24 24 23 23 21 21 21 20 20 18 16 14 13 19 29 40 47 50 52 54 55 55 53 50 44 37 31 26 23 22 24 27 31 35 38 41 44 45 46 46 47 48 49 51 53 54 53 51 48 47 48 51 56 60 62 63 63 65 69 74 78 78 78 77 77 78 83 88 90 89 89 88
43 41 39 39 38 36 36 36 36 35 33 31 28 27 26 25 24 22 21 21 21 21 21 20 18 16 13 16 25 35 43 46 49 52 54 55 55 53 50 44 38 32 26 23 23 25 29 33 37 40 43 44 45 46 47 48 48 50 52 53 53 52 49 47 47 49 53 57 60 62 63 64 68 72 76 77 76 75 74 77 82 87 90 90 90 89
43 42 40 39 38 37 37 36 36 36 34 32 30 28 27 25 24 23 22 21 22 22 23 22 20 18 15 15 21 30 38 42 46 48 51 53 54 55 53 51 46 40 31 25 23 25 29 33 37 41 43 44 44 46 48 48 48 48 50 52 53 52 49 47 47 48 50 54 58 61 62 63 66 71 74 74 74 73 73 75 80 85 89 90 90 89
44 43 41 39 38 38 38 37 37 37 35 33 31 29 28 26 25 23 22 22 22 23 24 25 24 22 18 16 19 24 32 38 42 45 47 49 52 54 55 54 52 47 39 30 26 26 30 34 38 42 45 46 46 47 50 50 49 48 49 51 52 52 50 48 46 46 48 52 56 60 63 64 66 69 72 72 72 72 71 74 78 82 86 89 89 88
45 44 42 40 39 38 38 38 38 37 36 34 32 30 29 27 25 24 23 23 23 23 25 26 28 27 26 21 20 21 27 32 37 40 42 45 47 51 53 53 53 50 44 35 30 28 31 35 40 44 48 48 48 49 53 53 51 49 47 50 51 52 50 48 46 45 46 50 55 60 64 67 69 71 72 72 72 71 69 71 73 77 81 85 88 87
46 46 44 42 40 38 38 39 39 38 36 35 33 32 30 28 26 25 24 23 23 23 24 27 30 33 35 32 27 24 24 28 31 35 38 40 43 47 50 51 51 50 45 37 32 30 31 36 40 44 48 50 50 50 53 55 53 50 47 48 50 51 50 48 46 44 44 48 53 60 66 69 72 73 75 74 73 71 68 68 69 71 76 81 84 85
47 47 46 44 42 40 39 39 39 38 36 35 34 32 30 29 28 26 25 24 23 22 23 26 32 38 43 42 38 31 26 27 28 31 34 37 40 44 47 48 49 47 43 37 32 31 31 35 39 43 47 51 51 52 54 55 53 51 47 48 49 50 51 49 46 44 44 46 51 58 66 70 73 76 77 77 75 73 69 67 66 67 70 75 79 81
47 47 47 45 43 41 40 39 39 38 37 36 34 33 32 30 29 28 26 24 23 22 22 25 32 39 47 48 46 40 32 28 28 29 31 34 38 42 45 45 46 44 41 36 32 31 31 34 38 42 46 50 52 53 54 54 53 52 50 49 49 50 51 49 47 45 43 45 49 55 63 69 73 76 78 79 78 76 72 70 67 66 66 69 72 75
47 48 48 47 45 43 41 39 39 39 38 37 35 34 33 32 30 29 27 24 23 22 22 24 30 38 47 50 49 46 39 33 30 29 30 33 37 40 43 43 43 41 39 36 33 31 31 33 36 40 44 48 52 54 55 54 53 53 53 53 52 51 50 49 47 45 43 43 46 51 59 65 71 75 78 79 78 77 76 73 70 66 63 64 67 70
47 48 48 48 46 45 43 41 40 39 39 39 37 36 34 32 31 29 27 25 24 23 23 24 28 35 44 48 50 49 45 38 33 31 31 34 36 38 40 41 40 39 38 37 36 34 32 33 35 38 41 46 51 54 56 55 55 56 57 57 55 52 51 49 47 45 42 42 44 48 54 61 67 72 76 77 77 77 76 74 70 66 62 61 63 67
46 48 49 49 48 46 45 43 41 40 40 40 39 37 35 33 31 30 29 27 26 24 23 23 27 33 41 46 49 50 49 43 36 31 30 33 35 37 38 38 39 38 38 38 38 36 34 34 35 36 39 44 49 54 57 57 58 59 60 59 57 54 51 49 47 45 42 42 43 46 51 57 62 67 71 73 74 74 72 70 67 64 61 59 62 65
46 48 50 50 50 48 47 45 43 42 41 40 39 38 36 34 33 31 30 29 28 26 25 23 26 31 39 44 48 50 51 46 39 32 28 29 31 34 35 35 36 37 38 39 39 38 37 36 36 36 38 42 49 55 59 59 60 61 61 60 58 55 51 50 47 45 43 42 43 45 48 54 59 63 66 68 69 69 66 63 61 60 59 59 60 63
46 49 51 51 51 51 49 47 45 44 43 42 40 39 38 36 34 33 32 30 29 28 26 24 25 29 36 43 48 51 51 48 43 36 30 28 28 29 30 31 33 35 37 39 39 38 38 39 39 39 40 45 52 57 60 61 62 62 61 60 57 54 51 50 48 46 44 43 43 45 47 52 56 59 62 64 64 63 60 57 56 56 58 58 60 61
46 49 51 52 52 52 51 49 48 46 45 44 42 40 39 37 35 34 33 31 30 29 28 26 26 28 33 40 46 50 52 50 46 41 36 31 28 27 27 26 27 29 33 35 37 38 39 41 42 42 44 50 55 59 61 63 63 62 61 59 56 54 52 51 49 48 46 45 44 45 47 50 54 57 59 59 59 57 55 53 53 54 57 58 60 62
47 50 51 52 52 52 52 51 49 48 47 46 44 42 40 39 37 36 35 33 32 31 30 27 26 27 30 37 44 49 52 51 49 45 42 37 33 31 30 29 30 31 31 32 34 36 40 44 45 46 49 55 57 59 60 63 64 63 62 60 58 56 54 52 51 49 47 46 45 46 47 50 52 54 55 55 54 52 50 50 51 53 55 59 63 67
48 50 52 52 52 51 51 50 50 49 49 48 46 45 43 41 40 38 37 35 34 33 32 30 28 27 28 35 42 48 51 51 49 48 46 44 43 42 42 41 41 40 37 34 33 35 40 46 48 50 55 59 60 59 59 62 63 63 63 62 61 59 57 55 53 51 49 47 46 47 47 49 51 51 52 51 49 47 45 46 49 53 59 66 74 82
49 51 53 53 52 51 50 50 50 50 49 49 48 46 45 44 42 41 39 37 36 36 35 33 31 29 29 32 38 45 49 50 50 49 50 50 50 50 52 50 49 48 44 40 35 34 40 49 53 54 59 62 63 62 60 62 62 63 62 62 62 61 59 57 54 52 50 48 47 47 47 48 49 50 49 48 46 44 43 46 52 62 74 84 90 93
50 53 55 54 53 51 50 49 49 49 49 49 48 47 46 45 44 43 42 40 39 38 39 37 34 31 32 32 36 41 48 50 50 50 52 51 51 52 53 53 52 51 51 48 40 34 39 51 56 59 61 64 64 64 62 63 64 63 62 62 62 61 60 58 55 53 51 49 48 48 48 49 49 48 47 47 47 46 46 52 64 77 88 91 93 94
52 54 56 55 53 52 50 50 49 49 49 49 48 47 47 47 47 46 45 44 42 42 42 40 37 34 33 33 35 40 47 49 50 51 53 52 52 52 53 54 54 53 52 48 41 35 38 48 56 61 64 65 66 66 65 65 65 65 63 62 62 61 59 57 55 53 51 50 49 49 49 49 48 48 48 51 52 53 54 65 77 88 92 92 93 93
53 55 57 56 54 52 51 50 49 49 49 49 48 47 47 48 48 49 47 46 45 44 44 44 41 38 34 33 34 38 45 48 50 51 53 52 52 52 54 54 54 54 54 50 41 35 38 47 54 60 65 66 66 66 65 66 67 67 65 64 63 62 60 57 55 53 51 50 50 49 49 48 48 50 55 61 63 65 66 76 83 89 92 93 93 93
53 55 56 56 55 52 50 50 49 49 49 48 48 47 46 47 48 49 48 47 47 46 47 47 45 42 38 35 34 37 43 46 49 51 53 52 52 52 54 54 54 54 54 51 43 36 37 46 54 60 66 67 67 66 65 66 69 70 66 65 65 64 63 59 56 53 52 50 49 49 48 48 53 62 72 74 74 74 76 81 86 89 91 92 94 94
54 55 56 56 55 53 51 49 49 48 49 49 48 47 47 47 47 48 49 48 48 47 48 49 48 46 42 37 35 35 39 44 47 49 52 51 51 52 53 54 54 54 54 52 45 39 37 45 54 60 65 66 67 66 66 67 70 71 69 67 66 66 67 63 59 56 53 51 49 48 46 51 63 75 80 79 78 78 79 82 86 88 90 90 92 93
55 55 56 56 55 53 52 50 49 48 49 49 48 48 47 47 47 47 48 48 48 48 48 49 49 48 45 41 37 35 35 40 43 46 50 51 51 51 53 54 54 54 54 52 47 41 37 46 54 61 65 65 66 67 68 71 72 72 71 69 68 68 69 67 63 59 55 52 49 47 47 61 74 81 80 78 76 77 79 82 85 87 89 90 91 91
56 56 55 55 55 54 52 50 49 48 48 48 47 47 47 47 47 47 48 49 48 48 48 49 49 48 47 43 39 35 33 35 39 43 48 52 53 52 52 54 54 54 54 51 47 42 39 47 54 60 64 65 66 68 70 74 75 74 73 71 71 71 70 69 67 62 57 52 49 48 51 68 78 82 79 77 76 77 79 82 85 88 91 92 93 93
56 55 55 55 55 54 52 50 49 48 48 47 47 46 46 46 47 47 47 48 48 48 48 48 49 49 48 45 41 37 34 35 38 42 48 52 53 53 52 54 54 54 54 51 47 43 42 47 54 60 63 65 67 69 72 75 75 75 73 72 72 72 71 70 68 64 58 53 50 50 56 73 80 81 79 78 78 79 80 84 87 90 93 93 94 94
55 55 55 55 54 53 52 50 49 48 48 47 47 47 47 47 48 48 48 48 48 48 48 49 49 49 48 47 43 40 38 41 43 46 51 54 54 52 53 54 54 54 54 51 47 43 44 48 53 58 63 66 69 71 73 75 75 75 73 73 72 71 69 69 67 64 60 54 51 51 59 72 79 80 79 80 81 82 83 85 89 92 94 94 93 93
54 54 55 54 54 53 52 50 49 48 47 46 47 48 49 49 49 49 49 48 48 48 48 49 49 49 48 47 45 44 43 47 49 52 54 56 55 53 53 54 54 55 55 51 47 44 44 48 53 58 64 68 71 74 75 75 76 76 74 73 71 69 68 69 69 67 62 55 51 52 59 70 77 81 82 83 84 84 85 87 90 93 94 94 94 93
54 54 54 54 53 53 52 51 49 48 46 46 48 49 51 51 51 51 50 49 48 48 48 49 49 49 48 47 46 47 47 50 52 54 57 57 55 53 52 54 54 55 55 53 49 47 47 50 57 63 68 70 74 76 78 77 77 77 76 74 71 68 67 70 72 70 65 57 52 52 58 68 76 81 84 85 85 85 86 88 91 93 94 94 94 94
54 54 53 53 53 53 52 51 49 48 46 47 48 49 51 51 51 51 50 49 48 48 48 49 49 49 48 47 48 49 49 51 54 57 58 57 55 53 52 54 54 55 55 54 53 52 54 59 66 73 76 74 74 76 79 79 78 78 78 75 72 68 68 72 74 73 67 59 55 54 58 68 76 82 85 86 86 86 87 90 92 93 94 94 94 93
55 54 54 54 53 53 52 52 50 49 48 47 48 48 49 49 49 49 49 48 48 49 49 49 49 49 48 48 48 49 49 53 58 61 58 56 54 53 53 54 54 54 55 55 55 57 64 72 77 81 84 79 76 75 77 78 79 79 79 76 72 69 69 73 75 74 70 62 59 58 61 70 77 83 84 84 85 86 89 91 92 93 93 93 93 92
57 56 55 55 54 54 54 53 52 52 51 50 49 49 48 48 47 47 47 47 48 48 48 48 48 48 49 49 49 49 51 58 64 65 57 55 54 53 53 54 54 54 55 54 56 63 76 81 83 84 88 85 80 76 75 77 79 80 79 75 72 70 70 74 76 75 71 65 62 63 67 74 79 83 84 84 85 86 88 91 93 93 94 94 93 92
63 61 60 59 58 58 57 57 57 56 55 53 52 50 49 48 47 46 46 47 47 47 48 48 48 48 49 50 51 54 60 68 71 68 57 56 54 53 52 53 53 54 54 54 59 69 85 86 84 83 86 86 83 79 76 76 78 79 79 76 73 72 72 74 76 76 74 68 67 69 73 77 81 85 87 87 87 87 86 89 92 94 94 94 94 93
72 71 70 69 67 66 65 63 62 61 59 57 55 53 51 50 49 48 47 48 48 48 48 47 47 47 49 51 55 62 72 77 76 71 62 58 56 54 53 53 53 54 54 56 63 74 87 86 83 82 85 87 85 81 77 76 77 78 79 77 76 75 74 74 76 77 78 75 74 75 77 79 82 86 92 91 89 87 85 87 90 92 93 93 93 93
77 78 78 76 75 74 73 72 70 68 65 63 60 57 55 53 52 52 51 51 51 50 49 47 47 47 49 53 61 71 80 80 78 73 67 61 57 54 53 53 53 54 54 58 67 79 88 86 83 82 85 88 86 83 79 79 79 79 79 78 77 77 76 75 76 78 81 79 78 78 81 80 81 86 93 92 90 87 85 86 88 90 91 92 92 92
79 80 79 78 78 77 77 76 76 74 72 69 66 64 61 58 57 56 54 54 53 52 50 48 47 47 48 55 66 76 81 80 79 76 71 65 59 55 53 52 53 53 55 60 70 81 88 86 84 83 86 87 88 87 85 85 83 81 81 79 79 79 78 76 76 78 83 82 82 83 83 81 83 88 93 92 89 87 85 86 88 90 90 91 91 91
80 79 79 78 78 78 78 77 77 77 76 74 72 69 66 64 61 59 57 56 54 53 51 49 48 47 47 57 68 78 81 80 79 78 76 69 63 57 54 53 53 53 55 61 71 82 89 87 85 84 86 87 88 88 87 87 86 84 82 81 81 81 79 77 77 79 84 84 85 87 87 84 83 86 93 91 90 89 87 88 89 90 90 90 90 90
79 79 79 78 77 77 78 78 77 77 77 76 75 73 71 68 65 62 59 57 56 54 52 50 49 48 48 56 68 78 80 80 80 80 80 75 69 62 55 53 53 54 55 62 72 83 89 88 86 86 87 87 87 87 87 87 86 86 85 82 82 83 80 79 79 81 86 85 88 90 92 86 82 83 91 92 93 92 91 91 91 91 91 91 91 91
78 79 79 78 78 78 78 78 78 78 78 77 76 75 74 71 68 65 61 59 56 54 53 51 50 50 49 53 64 75 79 80 80 80 81 79 75 68 58 54 53 54 55 63 75 85 88 88 88 88 89 88 87 87 87 86 86 86 85 83 83 82 80 79 80 82 86 86 88 90 93 89 84 83 89 92 94 94 93 93 93 93 93 93 93 93
76 77 77 76 77 77 78 77 76 76 76 75 73 72 71 70 68 65 62 60 57 55 53 52 51 50 49 51 57 66 74 77 79 79 80 79 77 73 64 57 54 54 56 65 77 86 89 88 88 88 89 88 88 87 87 87 86 85 83 85 85 84 80 80 80 81 85 86 87 89 92 91 87 85 91 92 93 93 93 93 93 93 93 93 93 93
78 77 77 76 76 76 76 76 75 74 73 72 70 69 68 68 67 65 62 59 57 55 53 51 50 50 49 49 52 56 63 68 71 73 75 77 76 73 68 59 55 55 59 69 80 87 89 88 88 87 88 88 88 87 88 88 87 85 84 86 87 86 83 82 80 80 83 86 87 89 91 91 90 89 91 93 93 93 93 93 93 93 93 93 94 94
78 78 78 77 75 74 73 73 72 71 70 69 68 67 67 67 66 64 61 58 55 54 52 50 49 49 48 49 49 51 53 56 59 62 66 68 70 70 66 59 55 56 61 72 82 88 89 88 87 87 87 87 87 87 88 87 86 87 88 89 88 86 83 83 81 80 81 85 87 89 89 90 90 90 91 93 93 93 93 92 92 93 92 93 93 93
78 79 79 78 76 73 70 69 68 68 67 67 67 66 66 66 65 63 60 57 54 52 51 49 48 47 46 47 48 49 50 50 50 52 54 57 60 62 62 59 57 57 63 73 81 87 89 88 87 87 87 86 86 86 87 85 85 87 89 88 87 84 80 80 79 77 77 82 86 88 88 89 89 89 90 92 93 93 93 92 92 91 91 91 91 92
78 78 79 78 77 75 72 69 67 67 67 67 67 66 66 65 64 62 59 57 54 52 50 48 46 45 45 45 46 48 49 49 49 49 51 52 54 57 59 58 57 58 63 72 80 86 89 88 87 87 86 85 85 86 88 86 86 88 90 88 88 87 84 79 76 75 75 79 83 87 89 88 88 89 90 91 92 93 93 92 92 91 90 89 90 91
78 78 78 77 77 76 75 71 68 67 67 67 67 67 65 64 63 61 59 57 54 51 49 47 45 44 44 44 45 46 48 50 50 50 50 50 51 53 56 57 58 59 63 71 78 84 88 88 87 87 86 85 85 85 87 88 89 88 87 87 88 88 85 80 77 76 76 78 82 86 88 89 89 90 91 91 91 92 93 92 92 91 91 90 89 90
76 77 78 77 77 78 78 73 70 68 67 68 68 67 66 64 63 61 59 57 54 51 49 47 45 44 43 43 44 45 48 50 51 52 51 51 51 53 54 56 57 59 62 69 76 82 87 88 88 87 86 85 84 84 86 87 88 88 87 87 88 88 87 83 80 78 78 78 81 84 85 87 89 90 91 90 90 91 91 92 92 91 91 91 90 90
75 76 77 78 78 78 78 74 71 68 68 68 68 67 66 64 63 61 60 57 55 52 49 47 45 44 43 43 43 44 47 50 52 53 53 53 54 55 55 55 57 59 62 67 74 80 86 88 88 87 86 84 83 83 85 87 88 88 87 87 87 88 89 87 85 82 79 80 81 82 82 84 87 89 89 88 89 89 90 91 91 90 90 90 90 90
74 76 77 78 78 78 77 74 71 69 68 68 68 67 66 65 64 62 60 58 55 53 50 47 45 44 43 42 42 43 46 50 53 54 55 55 56 57 57 56 56 58 61 66 72 77 83 87 88 88 86 85 84 83 84 86 87 88 88 87 86 87 88 88 86 83 81 81 81 81 80 82 85 87 87 86 87 88 89 89 89 89 88 88 88 88
73 75 76 78 79 79 78 75 72 69 69 68 68 67 67 66 64 63 61 59 56 53 50 48 46 44 43 42 42 43 45 49 53 56 57 57 58 59 58 57 57 57 60 64 70 75 81 85 88 88 87 86 85 84 85 86 87 88 87 85 84 83 85 85 83 83 83 83 82 80 78 78 81 85 86 85 85 86 87 87 87 87 88 88 88 88
72 74 75 77 78 79 79 75 72 70 69 69 68 67 67 66 65 64 62 60 57 54 51 48 46 44 43 42 42 43 44 48 53 56 58 57 58 58 58 57 57 57 59 63 68 73 78 83 87 88 86 86 85 85 86 86 87 87 86 83 80 78 78 79 80 81 83 84 83 80 78 76 76 78 80 81 82 83 85 86 86 86 88 89 90 91
70 72 73 75 77 79 80 76 73 71 69 68 68 67 67 66 65 64 62 60 58 55 52 49 46 44 44 43 42 43 44 47 52 55 58 57 57 57 58 57 57 57 59 62 65 70 75 81 86 88 87 85 85 86 86 86 86 86 86 82 79 76 75 76 77 79 81 82 82 80 78 76 76 76 76 78 80 82 86 87 86 86 88 88 90 91
68 70 72 74 76 78 79 78 75 72 70 68 67 66 66 66 65 64 63 61 59 56 53 50 47 45 44 43 43 43 44 46 50 54 57 57 57 57 58 58 58 58 60 62 65 69 74 80 85 88 87 86 86 86 87 87 86 85 85 83 81 78 76 76 76 77 78 79 79 78 77 76 76 76 76 78 80 82 87 87 86 85 87 88 89 90